GLOBALSTAR M075 [+]

Last updated on Thu Dec 28 2023 00:02:57 GMT+0000 (Coordinated Universal Time)

1 37192U 10054E 23361.35581932 -.00000081 00000+0 12562-3 0 9991 2 37192 51.9969 19.1182 0000379 124.7183 339.3893 12.62268536608081

Satellite not in orbit

GLOBALSTAR M075 [+]